QPF
0.00 0.00 0.01 0.01 0.01 0.01 0.01 0.01 0.01 0.02 0.01 0.01 0.01 0.01 0.01 0.01 0.01 0.01 0.01 0.01 0.01 0.01 0.02 0.02 0.02 0.02 0.02 0.01 0.01 0.01 0.00 0.00 0.00 0.01 0.01 0.00 0.00 0.00 0.00 0.00 0.00 0.00 0.01
0.00 0.00 0.01 0.01 0.01 0.01 0.01 0.01 0.02 0.02 0.01 0.01 0.01 0.01 0.01 0.01 0.01 0.01 0.01 0.01 0.01 0.01 0.02 0.02 0.01 0.01 0.01 0.01 0.00 0.00 0.00 0.00 0.00 0.00 0.00 0.00 0.00 0.00 0.00 0.01 0.01 0.01 0.01
0.00 0.00 0.01 0.01 0.01 0.01 0.01 0.01 0.02 0.02 0.01 0.01 0.01 0.01 0.01 0.01 0.01 0.01 0.01 0.01 0.01 0.02 0.02 0.02 0.01 0.01 0.01 0.01 0.00 0.00 0.00 0.00 0.00 0.00 0.00 0.00 0.01 0.01 0.01 0.01 0.01 0.01 0.01
0.00 0.00 0.01 0.01 0.01 0.01 0.01 0.02 0.02 0.02 0.02 0.02 0.01 0.01 0.01 0.01 0.01 0.02 0.02 0.02 0.01 0.02 0.01 0.01 0.00 0.01 0.00 0.00 0.00 0.00 0.00 0.00 0.00 0.00 0.00 0.00 0.01 0.02 0.02 0.01 0.01 0.01 0.01
0.00 0.00 0.01 0.02 0.02 0.02 0.02 0.02 0.02 0.02 0.02 0.02 0.02 0.02 0.02 0.02 0.02 0.02 0.02 0.02 0.01 0.01 0.01 0.00 0.00 0.00 0.00 0.00 0.00 0.00 0.00 0.00 0.00 0.00 0.00 0.01 0.01 0.02 0.01 0.01 0.01 0.01 0.01
0.00 0.00 0.01 0.02 0.02 0.02 0.02 0.02 0.02 0.02 0.02 0.02 0.02 0.02 0.03 0.03 0.03 0.02 0.02 0.01 0.01 0.01 0.00 0.00 0.00 0.00 0.00 0.00 0.00 0.00 0.00 0.00 0.00 0.00 0.00 0.01 0.02 0.02 0.01 0.01 0.01 0.01 0.02
0.00 0.00 0.01 0.02 0.02 0.02 0.02 0.03 0.03 0.03 0.02 0.02 0.02 0.02 0.03 0.03 0.03 0.02 0.01 0.01 0.01 0.00 0.00 0.00 0.00 0.00 0.00 0.00 0.00 0.00 0.00 0.00 0.00 0.00 0.01 0.01 0.02 0.02 0.02 0.02 0.02 0.02 0.02
0.00 0.01 0.01 0.03 0.03 0.03 0.03 0.03 0.03 0.03 0.03 0.02 0.02 0.02 0.03 0.03 0.03 0.02 0.01 0.01 0.01 0.00 0.00 0.00 0.00 0.01 0.01 0.00 0.00 0.00 0.00 0.00 0.00 0.00 0.01 0.01 0.02 0.02 0.02 0.02 0.02 0.02 0.02
0.01 0.01 0.02 0.03 0.04 0.05 0.05 0.05 0.04 0.04 0.05 0.03 0.03 0.03 0.03 0.03 0.03 0.02 0.01 0.01 0.00 0.00 0.00 0.00 0.01 0.01 0.00 0.00 0.00 0.00 0.00 0.00 0.00 0.00 0.01 0.01 0.01 0.01 0.01 0.01 0.01 0.01 0.01
0.01 0.02 0.02 0.04 0.05 0.06 0.07 0.06 0.05 0.05 0.06 0.05 0.03 0.02 0.02 0.03 0.03 0.02 0.01 0.01 0.01 0.00 0.00 0.00 0.01 0.01 0.00 0.00 0.00 0.00 0.00 0.00 0.00 0.00 0.01 0.01 0.01 0.01 0.01 0.01 0.01 0.01 0.00
0.02 0.02 0.03 0.06 0.07 0.07 0.08 0.07 0.07 0.07 0.07 0.06 0.04 0.03 0.02 0.03 0.04 0.03 0.02 0.01 0.01 0.01 0.00 0.01 0.01 0.00 0.00 0.00 0.00 0.00 0.00 0.00 0.00 0.00 0.01 0.01 0.02 0.02 0.01 0.01 0.01 0.00 0.00
0.02 0.03 0.04 0.07 0.08 0.09 0.09 0.08 0.08 0.09 0.09 0.07 0.05 0.04 0.04 0.03 0.03 0.03 0.03 0.02 0.01 0.01 0.01 0.01 0.01 0.00 0.00 0.00 0.00 0.00 0.00 0.00 0.00 0.00 0.01 0.01 0.02 0.02 0.01 0.00 0.00 0.00 0.00
0.02 0.03 0.04 0.07 0.10 0.11 0.11 0.09 0.08 0.08 0.08 0.08 0.06 0.04 0.04 0.04 0.02 0.03 0.03 0.03 0.02 0.01 0.01 0.01 0.00 0.00 0.00 0.00 0.00 0.00 0.00 0.00 0.00 0.00 0.00 0.01 0.01 0.01 0.00 0.00 0.00 0.00 0.00
0.04 0.05 0.06 0.08 0.10 0.11 0.11 0.10 0.08 0.07 0.07 0.08 0.07 0.05 0.04 0.03 0.02 0.01 0.02 0.02 0.01 0.01 0.01 0.00 0.00 0.00 0.00 0.00 0.00 0.00 0.00 0.00 0.00 0.00 0.00 0.00 0.01 0.00 0.00 0.00 0.00 0.00 0.00
0.04 0.06 0.08 0.10 0.10 0.11 0.12 0.10 0.09 0.07 0.06 0.06 0.08 0.08 0.05 0.03 0.01 0.01 0.01 0.01 0.01 0.01 0.01 0.00 0.00 0.00 0.00 0.00 0.00 0.00 0.00 0.00 0.00 0.00 0.00 0.00 0.00 0.00 0.00 0.00 0.01 0.00 0.00
0.04 0.06 0.08 0.11 0.12 0.13 0.13 0.10 0.08 0.07 0.06 0.06 0.07 0.07 0.07 0.05 0.02 0.01 0.01 0.01 0.01 0.00 0.00 0.00 0.00 0.00 0.00 0.00 0.00 0.00 0.00 0.00 0.00 0.00 0.00 0.00 0.00 0.00 0.00 0.00 0.01 0.00 0.00
0.04 0.06 0.09 0.11 0.13 0.15 0.14 0.12 0.09 0.07 0.06 0.06 0.05 0.05 0.06 0.06 0.04 0.02 0.02 0.01 0.00 0.00 0.00 0.00 0.00 0.00 0.00 0.00 0.00 0.00 0.00 0.00 0.00 0.00 0.00 0.00 0.00 0.00 0.00 0.00 0.00 0.00 0.00
0.05 0.06 0.09 0.11 0.13 0.16 0.16 0.15 0.10 0.07 0.06 0.06 0.06 0.05 0.06 0.06 0.05 0.03 0.02 0.01 0.01 0.00 0.00 0.00 0.00 0.00 0.00 0.00 0.00 0.00 0.00 0.00 0.00 0.00 0.00 0.00 0.00 0.00 0.00 0.00 0.00 0.00 0.00
0.05 0.07 0.09 0.10 0.12 0.16 0.18 0.18 0.13 0.08 0.05 0.06 0.06 0.05 0.05 0.06 0.07 0.05 0.03 0.02 0.01 0.00 0.00 0.00 0.00 0.00 0.00 0.00 0.00 0.00 0.00 0.00 0.00 0.00 0.00 0.00 0.00 0.00 0.00 0.00 0.00 0.00 0.00
0.06 0.09 0.11 0.11 0.12 0.17 0.20 0.20 0.16 0.11 0.07 0.05 0.05 0.05 0.05 0.06 0.07 0.07 0.05 0.03 0.01 0.00 0.00 0.00 0.00 0.00 0.00 0.00 0.00 0.00 0.00 0.00 0.00 0.00 0.00 0.00 0.00 0.00 0.00 0.00 0.00 0.00 0.00
0.05 0.09 0.12 0.12 0.14 0.19 0.22 0.21 0.17 0.11 0.08 0.05 0.04 0.04 0.04 0.05 0.06 0.06 0.05 0.04 0.02 0.01 0.00 0.00 0.00 0.00 0.00 0.00 0.00 0.00 0.00 0.00 0.00 0.00 0.00 0.00 0.00 0.00 0.00 0.00 0.00 0.00 0.00
0.04 0.06 0.11 0.12 0.14 0.18 0.22 0.19 0.16 0.11 0.08 0.05 0.03 0.04 0.04 0.05 0.06 0.06 0.05 0.03 0.02 0.01 0.00 0.00 0.00 0.00 0.00 0.00 0.00 0.00 0.00 0.00 0.00 0.00 0.00 0.00 0.00 0.00 0.00 0.00 0.00 0.00 0.00
0.05 0.06 0.08 0.11 0.14 0.17 0.23 0.24 0.20 0.19 0.14 0.08 0.04 0.05 0.05 0.05 0.05 0.07 0.05 0.03 0.02 0.01 0.00 0.00 0.00 0.00 0.00 0.00 0.00 0.00 0.00 0.00 0.00 0.00 0.00 0.00 0.00 0.00 0.00 0.00 0.00 0.00 0.00
0.05 0.07 0.08 0.10 0.15 0.15 0.21 0.28 0.20 0.17 0.16 0.10 0.04 0.04 0.06 0.07 0.06 0.05 0.06 0.04 0.02 0.01 0.00 0.00 0.00 0.00 0.00 0.00 0.00 0.00 0.00 0.00 0.00 0.00 0.00 0.00 0.00 0.00 0.00 0.00 0.00 0.00 0.00
0.05 0.08 0.09 0.10 0.15 0.16 0.17 0.24 0.23 0.16 0.13 0.11 0.06 0.04 0.06 0.07 0.08 0.05 0.05 0.05 0.03 0.01 0.00 0.00 0.00 0.00 0.00 0.00 0.00 0.00 0.00 0.00 0.00 0.00 0.00 0.00 0.00 0.00 0.00 0.00 0.00 0.00 0.00
0.05 0.08 0.10 0.11 0.14 0.15 0.16 0.20 0.23 0.19 0.13 0.12 0.09 0.05 0.05 0.07 0.07 0.07 0.04 0.04 0.03 0.01 0.01 0.00 0.00 0.00 0.00 0.00 0.00 0.00 0.00 0.00 0.00 0.00 0.00 0.00 0.00 0.00 0.00 0.00 0.00 0.00 0.00
MSLP
1003.55 1003.35 1003.45 1003.81 1004.36 1004.97 1005.57 1006.09 1006.49 1006.80 1007.05 1007.32 1007.64 1008.05 1008.54 1009.09 1009.64 1010.17 1010.62 1011.00 1011.30 1011.57 1011.82 1012.08 1012.37 1012.66 1012.96 1013.23 1013.45 1013.61 1013.74 1013.84 1013.94 1014.07 1014.24 1014.42 1014.61 1014.78 1014.89 1014.93 1014.90 1014.83 1014.74
1003.41 1003.25 1003.37 1003.74 1004.28 1004.88 1005.46 1005.97 1006.38 1006.71 1006.99 1007.30 1007.66 1008.10 1008.62 1009.18 1009.74 1010.26 1010.71 1011.08 1011.39 1011.68 1011.96 1012.26 1012.58 1012.93 1013.26 1013.55 1013.78 1013.95 1014.06 1014.14 1014.23 1014.35 1014.51 1014.70 1014.90 1015.07 1015.19 1015.24 1015.22 1015.14 1015.03
1003.22 1003.12 1003.28 1003.67 1004.20 1004.79 1005.36 1005.87 1006.29 1006.65 1006.98 1007.32 1007.72 1008.19 1008.71 1009.27 1009.81 1010.31 1010.74 1011.11 1011.43 1011.73 1012.05 1012.40 1012.79 1013.19 1013.57 1013.90 1014.15 1014.32 1014.43 1014.49 1014.54 1014.62 1014.75 1014.91 1015.09 1015.26 1015.39 1015.45 1015.44 1015.37 1015.27
1003.01 1002.98 1003.18 1003.59 1004.12 1004.70 1005.27 1005.78 1006.22 1006.61 1006.98 1007.36 1007.79 1008.28 1008.81 1009.35 1009.87 1010.35 1010.76 1011.12 1011.45 1011.78 1012.15 1012.55 1013.00 1013.46 1013.90 1014.28 1014.56 1014.74 1014.84 1014.87 1014.88 1014.91 1014.98 1015.09 1015.24 1015.39 1015.51 1015.59 1015.61 1015.57 1015.50
1002.82 1002.85 1003.09 1003.51 1004.03 1004.60 1005.16 1005.68 1006.14 1006.56 1006.97 1007.40 1007.86 1008.37 1008.90 1009.44 1009.94 1010.40 1010.81 1011.17 1011.52 1011.89 1012.29 1012.75 1013.26 1013.77 1014.26 1014.68 1014.99 1015.19 1015.28 1015.29 1015.26 1015.23 1015.23 1015.29 1015.38 1015.50 1015.62 1015.71 1015.77 1015.78 1015.76
1002.71 1002.78 1003.03 1003.44 1003.95 1004.50 1005.04 1005.56 1006.03 1006.49 1006.94 1007.41 1007.91 1008.44 1008.99 1009.53 1010.04 1010.50 1010.92 1011.30 1011.68 1012.07 1012.52 1013.01 1013.55 1014.10 1014.62 1015.07 1015.41 1015.62 1015.71 1015.71 1015.66 1015.58 1015.53 1015.53 1015.57 1015.65 1015.76 1015.87 1015.96 1016.03 1016.07
1002.72 1002.79 1003.02 1003.40 1003.86 1004.37 1004.89 1005.40 1005.89 1006.38 1006.87 1007.39 1007.93 1008.49 1009.06 1009.62 1010.15 1010.64 1011.09 1011.51 1011.92 1012.35 1012.82 1013.33 1013.88 1014.43 1014.95 1015.41 1015.76 1015.99 1016.10 1016.11 1016.05 1015.96 1015.88 1015.82 1015.82 1015.87 1015.97 1016.08 1016.21 1016.33 1016.42
1002.87 1002.88 1003.06 1003.36 1003.76 1004.21 1004.70 1005.20 1005.71 1006.23 1006.77 1007.33 1007.92 1008.52 1009.13 1009.72 1010.29 1010.81 1011.31 1011.77 1012.22 1012.68 1013.16 1013.67 1014.20 1014.72 1015.22 1015.66 1016.01 1016.26 1016.40 1016.44 1016.41 1016.33 1016.24 1016.17 1016.14 1016.16 1016.24 1016.36 1016.51 1016.66 1016.81
1003.11 1003.04 1003.11 1003.32 1003.62 1004.01 1004.46 1004.95 1005.48 1006.04 1006.64 1007.25 1007.89 1008.53 1009.18 1009.81 1010.42 1010.99 1011.54 1012.06 1012.55 1013.04 1013.52 1014.01 1014.49 1014.96 1015.41 1015.81 1016.15 1016.41 1016.58 1016.67 1016.69 1016.65 1016.59 1016.53 1016.49 1016.50 1016.57 1016.68 1016.83 1017.01 1017.18
1003.38 1003.20 1003.15 1003.23 1003.43 1003.74 1004.14 1004.64 1005.20 1005.81 1006.46 1007.14 1007.83 1008.53 1009.21 1009.87 1010.52 1011.14 1011.74 1012.31 1012.85 1013.37 1013.85 1014.30 1014.74 1015.14 1015.52 1015.87 1016.18 1016.44 1016.65 1016.80 1016.88 1016.91 1016.90 1016.87 1016.85 1016.85 1016.90 1017.00 1017.15 1017.33 1017.52
1003.61 1003.30 1003.11 1003.06 1003.15 1003.38 1003.75 1004.24 1004.84 1005.52 1006.25 1007.00 1007.75 1008.49 1009.21 1009.90 1010.58 1011.24 1011.89 1012.50 1013.09 1013.63 1014.12 1014.55 1014.93 1015.28 1015.59 1015.88 1016.15 1016.41 1016.65 1016.84 1017.00 1017.10 1017.15 1017.17 1017.17 1017.18 1017.23 1017.31 1017.45 1017.61 1017.79
1003.72 1003.29 1002.97 1002.79 1002.76 1002.91 1003.25 1003.76 1004.41 1005.16 1005.98 1006.81 1007.63 1008.41 1009.16 1009.88 1010.58 1011.27 1011.95 1012.61 1013.23 1013.81 1014.31 1014.74 1015.10 1015.39 1015.65 1015.89 1016.12 1016.37 1016.61 1016.85 1017.06 1017.23 1017.34 1017.41 1017.45 1017.48 1017.52 1017.60 1017.71 1017.86 1018.03
1003.65 1003.13 1002.70 1002.40 1002.27 1002.35 1002.66 1003.18 1003.89 1004.72 1005.63 1006.55 1007.45 1008.29 1009.07 1009.81 1010.52 1011.23 1011.93 1012.62 1013.29 1013.91 1014.45 1014.89 1015.25 1015.52 1015.74 1015.94 1016.14 1016.36 1016.61 1016.87 1017.12 1017.34 1017.50 1017.62 1017.70 1017.75 1017.79 1017.86 1017.96 1018.09 1018.24
1003.37 1002.81 1002.30 1001.90 1001.69 1001.71 1001.99 1002.53 1003.28 1004.20 1005.20 1006.22 1007.20 1008.10 1008.93 1009.69 1010.41 1011.13 1011.85 1012.57 1013.28 1013.94 1014.52 1015.01 1015.39 1015.67 1015.89 1016.07 1016.24 1016.45 1016.68 1016.94 1017.20 1017.45 1017.66 1017.81 1017.92 1017.99 1018.05 1018.12 1018.21 1018.32 1018.45
1002.90 1002.34 1001.80 1001.35 1001.08 1001.04 1001.29 1001.83 1002.62 1003.60 1004.69 1005.81 1006.87 1007.85 1008.73 1009.53 1010.27 1011.00 1011.73 1012.47 1013.21 1013.92 1014.56 1015.10 1015.53 1015.85 1016.09 1016.27 1016.44 1016.62 1016.84 1017.08 1017.34 1017.59 1017.82 1018.00 1018.13 1018.23 1018.30 1018.37 1018.46 1018.57 1018.69
1002.27 1001.77 1001.25 1000.79 1000.47 1000.40 1000.61 1001.13 1001.93 1002.96 1004.13 1005.33 1006.49 1007.55 1008.50 1009.35 1010.12 1010.86 1011.60 1012.35 1013.12 1013.86 1014.56 1015.16 1015.66 1016.04 1016.31 1016.52 1016.69 1016.87 1017.06 1017.28 1017.53 1017.77 1017.99 1018.19 1018.34 1018.46 1018.55 1018.64 1018.73 1018.82 1018.93
1001.52 1001.14 1000.69 1000.25 999.93 999.82 999.99 1000.48 1001.27 1002.32 1003.53 1004.81 1006.05 1007.21 1008.24 1009.15 1009.97 1010.73 1011.48 1012.24 1013.02 1013.79 1014.53 1015.19 1015.74 1016.19 1016.52 1016.77 1016.96 1017.13 1017.31 1017.51 1017.73 1017.95 1018.17 1018.36 1018.53 1018.66 1018.77 1018.87 1018.96 1019.05 1019.14
1000.70 1000.48 1000.15 999.78 999.48 999.35 999.48 999.92 1000.67 1001.70 1002.94 1004.27 1005.60 1006.84 1007.97 1008.95 1009.82 1010.62 1011.38 1012.15 1012.92 1013.70 1014.46 1015.15 1015.77 1016.27 1016.66 1016.95 1017.18 1017.36 1017.54 1017.72 1017.91 1018.11 1018.32 1018.50 1018.67 1018.81 1018.93 1019.03 1019.12 1019.21 1019.28
999.85 999.81 999.63 999.37 999.12 998.99 999.08 999.46 1000.16 1001.16 1002.38 1003.74 1005.13 1006.46 1007.68 1008.75 1009.69 1010.52 1011.30 1012.06 1012.82 1013.59 1014.35 1015.06 1015.71 1016.25 1016.69 1017.04 1017.30 1017.51 1017.69 1017.86 1018.04 1018.22 1018.40 1018.57 1018.73 1018.87 1018.99 1019.09 1019.17 1019.24 1019.29
998.98 999.13 999.12 998.99 998.82 998.72 998.78 999.11 999.74 1000.68 1001.88 1003.25 1004.68 1006.08 1007.38 1008.54 1009.54 1010.43 1011.22 1011.97 1012.72 1013.46 1014.20 1014.91 1015.57 1016.14 1016.63 1017.01 1017.31 1017.54 1017.74 1017.91 1018.07 1018.24 1018.40 1018.56 1018.70 1018.82 1018.92 1019.01 1019.07 1019.12 1019.15
998.10 998.42 998.58 998.59 998.52 998.46 998.53 998.82 999.39 1000.27 1001.43 1002.79 1004.25 1005.70 1007.07 1008.30 1009.38 1010.31 1011.13 1011.87 1012.60 1013.31 1014.01 1014.71 1015.36 1015.95 1016.46 1016.88 1017.22 1017.48 1017.69 1017.87 1018.02 1018.17 1018.31 1018.44 1018.56 1018.65 1018.73 1018.79 1018.83 1018.85 1018.86
997.22 997.66 997.97 998.12 998.15 998.17 998.26 998.53 999.07 999.91 1001.03 1002.37 1003.83 1005.32 1006.75 1008.04 1009.18 1010.15 1010.99 1011.74 1012.44 1013.13 1013.81 1014.48 1015.12 1015.72 1016.24 1016.69 1017.05 1017.34 1017.57 1017.75 1017.90 1018.03 1018.14 1018.24 1018.33 1018.39 1018.43 1018.46 1018.47 1018.46 1018.45
996.35 996.86 997.26 997.52 997.66 997.76 997.90 998.21 998.74 999.56 1000.65 1001.98 1003.44 1004.95 1006.41 1007.75 1008.93 1009.94 1010.81 1011.56 1012.26 1012.92 1013.58 1014.23 1014.87 1015.47 1016.01 1016.47 1016.85 1017.16 1017.40 1017.58 1017.72 1017.83 1017.92 1017.99 1018.03 1018.06 1018.06 1018.05 1018.04 1018.01 1017.99
995.51 996.00 996.44 996.77 997.00 997.19 997.42 997.78 998.36 999.19 1000.29 1001.62 1003.09 1004.60 1006.08 1007.44 1008.65 1009.69 1010.57 1011.33 1012.03 1012.69 1013.34 1013.99 1014.62 1015.23 1015.78 1016.26 1016.65 1016.97 1017.21 1017.39 1017.52 1017.61 1017.67 1017.70 1017.71 1017.70 1017.67 1017.64 1017.60 1017.56 1017.54
994.75 995.14 995.54 995.89 996.18 996.47 996.80 997.25 997.91 998.81 999.94 1001.29 1002.76 1004.28 1005.76 1007.13 1008.34 1009.39 1010.28 1011.06 1011.77 1012.43 1013.09 1013.75 1014.39 1015.00 1015.57 1016.06 1016.46 1016.78 1017.02 1017.19 1017.31 1017.37 1017.40 1017.41 1017.39 1017.35 1017.30 1017.25 1017.20 1017.17 1017.15
994.10 994.32 994.62 994.93 995.26 995.61 996.05 996.63 997.40 998.39 999.60 1000.99 1002.48 1004.00 1005.47 1006.83 1008.03 1009.07 1009.96 1010.74 1011.46 1012.14 1012.82 1013.49 1014.15 1014.78 1015.36 1015.86 1016.27 1016.59 1016.82 1016.98 1017.07 1017.12 1017.13 1017.12 1017.08 1017.03 1016.97 1016.91 1016.87 1016.85 1016.86
Thickness
5791 5792 5787 5786 5784 5782 5781 5780 5778 5777 5774 5773 5771 5769 5768 5766 5764 5762 5761 5759 5757 5756 5754 5752 5750 5748 5746 5744 5741 5740 5738 5737 5735 5734 5733 5731 5730 5729 5727 5726 5726 5724 5721
5790 5788 5782 5781 5780 5778 5777 5776 5774 5773 5770 5768 5767 5765 5764 5762 5760 5758 5757 5755 5753 5751 5750 5748 5746 5744 5742 5739 5737 5735 5734 5732 5730 5729 5729 5728 5726 5725 5723 5722 5721 5719 5717
5784 5783 5777 5776 5774 5773 5772 5771 5769 5768 5766 5764 5763 5761 5759 5758 5756 5754 5753 5751 5749 5747 5745 5743 5742 5740 5737 5735 5733 5731 5729 5728 5726 5725 5726 5725 5723 5720 5719 5717 5716 5714 5712
5778 5777 5773 5770 5769 5767 5766 5765 5764 5763 5762 5760 5758 5757 5755 5753 5752 5750 5748 5746 5744 5742 5740 5739 5737 5735 5733 5730 5728 5726 5725 5723 5722 5723 5724 5722 5719 5716 5714 5713 5711 5709 5707
5770 5770 5767 5764 5763 5762 5760 5760 5758 5757 5756 5755 5754 5752 5750 5748 5747 5745 5744 5742 5740 5738 5735 5734 5732 5730 5728 5726 5723 5722 5720 5719 5719 5720 5718 5717 5715 5712 5710 5708 5706 5704 5702
5762 5763 5761 5757 5757 5756 5755 5754 5752 5752 5751 5750 5749 5747 5745 5744 5742 5740 5738 5736 5734 5733 5730 5728 5727 5725 5723 5721 5719 5717 5715 5715 5716 5715 5714 5712 5710 5707 5705 5703 5701 5699 5696
5753 5755 5753 5750 5750 5749 5749 5748 5747 5746 5745 5744 5743 5741 5740 5739 5737 5735 5733 5731 5729 5727 5725 5723 5722 5720 5718 5716 5714 5712 5710 5710 5712 5710 5709 5707 5704 5702 5700 5698 5695 5693 5691
5744 5745 5745 5743 5743 5742 5742 5741 5740 5740 5739 5738 5737 5736 5734 5733 5731 5729 5727 5725 5724 5722 5720 5718 5716 5714 5713 5711 5709 5707 5706 5706 5706 5705 5704 5702 5699 5697 5695 5692 5690 5688 5685
5733 5735 5737 5736 5736 5735 5735 5735 5734 5733 5732 5732 5731 5729 5728 5727 5725 5723 5721 5720 5718 5716 5714 5713 5711 5709 5707 5705 5703 5702 5701 5701 5703 5701 5699 5696 5693 5692 5689 5687 5684 5682 5679
5721 5724 5727 5730 5730 5730 5729 5728 5728 5727 5726 5725 5724 5723 5721 5720 5718 5717 5716 5714 5712 5711 5709 5707 5706 5704 5702 5700 5698 5696 5696 5697 5697 5695 5694 5691 5688 5686 5684 5681 5678 5676 5673
5708 5713 5718 5722 5724 5725 5724 5722 5721 5720 5719 5718 5717 5716 5715 5714 5712 5710 5710 5708 5707 5705 5703 5702 5700 5698 5696 5694 5692 5691 5692 5693 5692 5691 5688 5685 5683 5681 5679 5676 5673 5670 5667
5697 5703 5709 5713 5716 5718 5718 5716 5715 5714 5713 5713 5712 5710 5710 5709 5707 5706 5702 5701 5700 5699 5697 5695 5694 5692 5691 5690 5687 5687 5688 5688 5687 5685 5681 5679 5678 5676 5673 5670 5667 5664 5661
5689 5694 5700 5704 5708 5710 5710 5710 5710 5709 5708 5708 5707 5706 5705 5703 5701 5699 5697 5694 5694 5693 5692 5689 5688 5688 5688 5686 5685 5684 5684 5683 5682 5680 5676 5673 5672 5670 5667 5664 5661 5658 5655
5677 5683 5690 5695 5698 5701 5703 5704 5704 5704 5704 5703 5702 5701 5700 5698 5696 5695 5693 5691 5689 5688 5687 5686 5685 5684 5683 5681 5681 5680 5678 5678 5677 5674 5670 5667 5666 5664 5662 5659 5656 5653 5649
5665 5673 5679 5685 5689 5692 5694 5696 5697 5698 5698 5698 5696 5696 5695 5693 5691 5690 5688 5686 5685 5684 5682 5681 5680 5679 5678 5677 5676 5675 5674 5672 5671 5669 5665 5662 5660 5658 5656 5653 5650 5647 5643
5655 5662 5669 5675 5680 5683 5686 5689 5691 5692 5693 5692 5690 5690 5689 5688 5686 5684 5683 5681 5680 5678 5677 5676 5676 5674 5673 5671 5670 5669 5668 5667 5666 5663 5660 5656 5654 5652 5650 5647 5644 5641 5638
5645 5653 5659 5665 5671 5676 5679 5682 5685 5685 5685 5685 5684 5683 5683 5682 5681 5679 5678 5676 5674 5673 5671 5671 5670 5669 5667 5666 5665 5664 5663 5662 5660 5658 5655 5652 5649 5646 5643 5641 5638 5635 5632
5635 5643 5650 5656 5663 5668 5672 5675 5678 5679 5679 5678 5677 5677 5676 5676 5675 5674 5673 5671 5669 5667 5666 5666 5665 5664 5662 5661 5660 5659 5657 5655 5654 5652 5649 5647 5644 5642 5638 5635 5632 5629 5626
5626 5634 5641 5648 5655 5660 5665 5667 5671 5672 5672 5672 5671 5671 5670 5670 5670 5669 5668 5666 5663 5662 5661 5660 5660 5660 5658 5656 5655 5653 5652 5650 5648 5646 5644 5642 5639 5636 5633 5629 5626 5622 5619
5618 5626 5633 5640 5647 5652 5656 5659 5662 5664 5665 5666 5667 5666 5665 5665 5665 5664 5663 5661 5659 5658 5657 5656 5655 5654 5653 5650 5648 5646 5646 5644 5643 5641 5639 5636 5633 5630 5628 5624 5621 5617 5613
5609 5618 5626 5632 5639 5644 5648 5652 5655 5657 5659 5661 5661 5662 5661 5661 5660 5659 5659 5657 5655 5655 5653 5652 5651 5648 5646 5645 5643 5641 5640 5638 5638 5636 5634 5632 5629 5626 5623 5619 5616 5612 5608
5602 5611 5620 5627 5633 5639 5644 5647 5652 5653 5655 5656 5656 5656 5657 5656 5655 5655 5655 5653 5652 5650 5649 5648 5646 5644 5642 5640 5641 5639 5637 5635 5633 5631 5629 5627 5625 5622 5618 5614 5611 5607 5603
5595 5605 5614 5622 5627 5633 5639 5641 5643 5644 5645 5647 5649 5651 5653 5653 5652 5651 5651 5650 5649 5647 5646 5644 5642 5641 5639 5636 5638 5638 5637 5637 5634 5629 5626 5623 5621 5618 5615 5611 5606 5602 5598
5589 5598 5607 5615 5622 5628 5633 5636 5640 5642 5644 5647 5649 5649 5648 5648 5648 5648 5647 5647 5646 5645 5643 5641 5639 5638 5636 5633 5632 5633 5635 5636 5632 5628 5623 5620 5617 5614 5611 5606 5602 5597 5593
5583 5591 5601 5610 5617 5623 5628 5632 5637 5640 5643 5643 5643 5644 5644 5644 5644 5644 5644 5643 5642 5642 5640 5639 5636 5635 5634 5632 5630 5628 5627 5625 5627 5626 5623 5618 5614 5611 5606 5602 5597 5593 5588
5575 5584 5594 5603 5611 5618 5623 5628 5634 5638 5639 5639 5639 5640 5640 5640 5640 5641 5641 5640 5640 5639 5638 5636 5633 5632 5631 5630 5628 5626 5625 5623 5622 5621 5620 5616 5613 5608 5602 5597 5592 5587 5582